DW5698 Weather Reports


Display with metric or nautical units.
time (UTC)temp
F
wind
direction
speed
MPH
gust
MPH
rain 1hr
in
rain 24hr
in
rain mn
in
humidity
%
barometer
mb
20260505210007 76 190 12.0 21.0 0.00 0.07 0.07 27 1005.9
20260505204505 75 232 10.0 25.0 0.00 0.07 0.07 29 1005.8
20260505203100 74 225 14.0 23.0 0.00 0.07 0.07 34 1006.2
20260505201607 73 268 11.0 27.0 0.00 0.07 0.07 37 1006.3
20260505200056 74 208 9.0 24.0 0.00 0.07 0.07 35 1006.1
20260505194555 74 211 15.0 26.0 0.00 0.07 0.07 36 1005.9
20260505193052 72 239 4.0 11.0 0.00 0.07 0.07 46 1006.2
20260505191555 70 317 5.0 10.0 0.00 0.07 0.07 50 1006.5
20260505190058 69 79 0.0 5.0 0.00 0.07 0.07 52 1006.8
20260505184554 69 296 3.0 9.0 0.00 0.07 0.07 55 1007.3
20260505183049 69 217 3.0 8.0 0.00 0.07 0.07 51 1007.5
20260505181539 68 157 2.0 7.0 0.00 0.07 0.07 54 1007.4
20260505180041 67 264 0.0 6.0 0.00 0.07 0.07 60 1007.6
20260505174541 67 205 0.0 4.0 0.00 0.07 0.07 57 1007.7
20260505173040 67 219 0.0 2.0 0.00 0.07 0.07 61 1007.9
20260505171540 66 149 0.0 6.0 0.00 0.07 0.07 62 1007.9
20260505170033 66 104 2.0 5.0 0.00 0.07 0.07 63 1007.9
20260505164535 66 42 1.0 6.0 0.00 0.07 0.07 64 1007.9
20260505163030 65 65 0.0 4.0 0.00 0.07 0.07 68 1008.0
20260505161524 63 65 0.0 5.0 0.00 0.07 0.07 69 1008.0
20260505153028 61 82 1.0 4.0 0.00 0.07 0.07 77 1008.1
20260505151522 60 141 1.0 3.0 0.00 0.07 0.07 82 1008.0
20260505124515 56 134 0.0 1.0 0.02 0.06 0.06 89 1007.3
20260505123011 56 109 0.0 5.0 0.02 0.05 0.05 88 1006.8
20260505121512 55 81 2.0 4.0 0.02 0.05 0.05 88 1006.4
20260505120008 55 78 1.0 5.0 0.02 0.05 0.05 87 1006.5
20260505114506 56 104 0.0 5.0 0.02 0.04 0.04 86 1007.1
20260505113007 56 103 2.0 8.0 0.01 0.03 0.03 85 1006.9
20260505111507 56 90 1.0 7.0 0.01 0.03 0.03 84 1007.1
20260505101552 58 93 1.0 3.0 0.02 0.02 0.02 82 1007.6
20260505100049 58 102 0.0 2.0 0.01 0.01 0.01 80 1007.9
20260505094550 58 77 1.0 5.0 0.01 0.01 0.01 79 1008.1
20260505093047 59 88 1.0 4.0 0.01 0.01 0.01 74 1008.7
20260505091546 60 70 0.0 2.0 0.00 0.00 0.00 73 1009.0
20260505090048 61 13 0.0 0.0 0.00 0.00 0.00 66 1009.3
20260505084536 61 13 0.0 5.0 0.00 0.00 0.00 65 1009.5
20260505083034 62 265 0.0 2.0 0.00 0.00 0.00 61 1009.5
20260505081542 62 217 5.0 9.0 0.00 0.00 0.00 56 1009.6
20260505080046 61 286 0.0 5.0 0.00 0.00 0.00 64 1009.8
20260505074531 61 273 2.0 10.0 0.00 0.00 0.00 65 1009.6
20260505073041 61 244 5.0 11.0 0.00 0.00 0.00 67 1009.8
20260505071529 61 282 0.0 9.0 0.00 0.00 0.00 66 1009.6
20260505070024 62 252 7.0 16.0 0.00 0.00 0.00 64 1009.1
20260505064522 62 265 8.0 15.0 0.00 0.00 0.00 63 1009.1
20260505063021 63 230 8.0 21.0 0.00 0.00 0.00 59 1009.1
20260505061521 63 252 9.0 18.0 0.00 0.00 0.00 59 1009.3
20260505060024 64 234 7.0 18.0 0.00 0.00 0.00 58 1009.0
20260505054522 63 246 1.0 7.0 0.00 0.00 0.00 52 1009.0
20260505053021 63 207 2.0 9.0 0.00 0.00 0.00 53 1009.2
20260505051522 63 50 4.0 9.0 0.00 0.00 0.00 54 1009.0
20260505041530 61 117 1.0 5.0 0.00 0.00 0.00 54 1009.4
20260505040014 61 156 0.0 1.0 0.00 0.00 0.00 55 1009.0
20260505034513 61 103 0.0 7.0 0.00 0.00 0.00 55 1009.2
20260505033012 61 250 4.0 15.0 0.00 0.00 0.00 55 1008.7
20260505031516 61 304 8.0 18.0 0.00 0.00 0.00 59 1008.8
20260505030010 61 315 9.0 20.0 0.00 0.00 0.00 58 1008.4
20260505024508 62 311 13.0 23.0 0.00 0.00 0.00 53 1008.5
20260505023008 63 272 10.0 26.0 0.00 0.00 0.00 53 1008.3
20260505021509 63 231 8.0 21.0 0.00 0.00 0.00 53 1008.1
20260505020006 63 271 10.0 20.0 0.00 0.00 0.00 54 1008.5
20260505014504 65 262 11.0 21.0 0.00 0.00 0.00 48 1007.7
20260505013005 65 268 8.0 16.0 0.00 0.00 0.00 46 1007.1
20260505011502 65 273 8.0 21.0 0.00 0.00 0.00 46 1007.4
20260505010100 67 287 6.0 16.0 0.00 0.00 0.00 41 1007.7
20260505004601 68 267 7.0 14.0 0.00 0.00 0.00 38 1008.1
20260505003101 69 276 9.0 18.0 0.00 0.00 0.00 36 1008.0
20260505001631 71 256 10.0 24.0 0.00 0.00 0.00 33 1008.1
20260505000137 74 282 8.0 19.0 0.00 0.00 0.00 26 1007.0
20260504234612 75 292 8.0 14.0 0.00 0.00 0.00 23 1007.1
20260504233106 75 276 10.0 23.0 0.00 0.00 0.00 21 1007.5
20260504231555 76 235 12.0 25.0 0.00 0.00 0.00 20 1007.1
20260504230055 77 216 11.0 21.0 0.00 0.00 0.00 19 1006.6
20260504224608 78 225 12.0 22.0 0.00 0.00 0.00 19 1006.3
20260504223054 79 222 13.0 26.0 0.00 0.00 0.00 19 1006.5
20260504221556 79 243 9.0 18.0 0.00 0.00 0.00 18 1006.8
20260504220052 79 249 9.0 14.0 0.00 0.00 0.00 19 1006.7
20260504214551 79 275 6.0 15.0 0.00 0.00 0.00 19 1007.0
20260504213119 78 257 8.0 14.0 0.00 0.00 0.00 20 1007.0
20260504211549 78 239 6.0 14.0 0.00 0.00 0.00 19 1007.1